Regional Weather Roundup
Issued by NWS

Home | Current Version | Previous Version | Text Only | Print | Product List | Glossary Off
Versions: 1 2 3 4 5 6 7 8 9 10 11 12 13 14 15 16 17 18 19 20 21 22 23 24 25 26 27 28 29 30 31 32 33 34 35 36 37 38 39 40 41 42 43 44 45 46 47 48 49 50

000
ASUS45 KPSR 290710
RWRAZ

ARIZONA HOURLY REGIONAL WEATHER ROUNDUP
NATIONAL WEATHER SERVICE PHOENIX AZ
1200 AM MST WED MAR 29 2017

NOTE: FAIR INDICATES FEW OR NO CLOUDS BELOW 12,000 FEET WITH NO
SIGNIFICANT WEATHER AND/OR OBSTRUCTIONS TO VISIBILITY.

AZZ001>003-036-290800-
NORTHWEST ARIZONA

CITY           SKY/WX    TMP DP  RH WIND       PRES   REMARKS
BULLHEAD CITY  CLEAR     70  25  18 N15       30.02R
KINGMAN        CLEAR     51   8  17 N13       30.09R
$$

AZZ004>008-015-016-018-290800-
NORTH CENTRAL ARIZONA

CITY           SKY/WX    TMP DP  RH WIND       PRES   REMARKS
GRAND CANYON   CLEAR     28  23  81 CALM      30.10R
WILLIAMS       CLEAR     36  21  55 N6        30.10R WCI  31
PRESCOTT       CLEAR     41  24  51 CALM      30.05S
FLAGSTAFF      CLEAR     32  22  66 CALM      30.06S
PAYSON         CLEAR     46  30  53 CALM      30.02S
PAGE           CLEAR     50  25  37 W9        30.04S
$$

AZZ009>014-017-290800-
NORTHEAST ARIZONA

CITY           SKY/WX    TMP DP  RH WIND       PRES   REMARKS
WINSLOW        CLEAR     44  26  49 W13       30.00R
SAINT JOHNS    MOCLDY    42  35  76 W9        29.94F
WINDOW ROCK    PTCLDY    41  30  65 NW21G30   29.90F
SHOW LOW       CLOUDY    37  28  70 NW3       30.01S
$$

AZZ023-290800-
GREATER PHOENIX AREA

CITY           SKY/WX    TMP DP  RH WIND       PRES   REMARKS
PHOENIX        PTCLDY    68  27  21 W12       29.87R
BUCKEYE        CLEAR     64  25  22 NW9       29.90R
LUKE AFB       CLEAR     67  28  23 NW13      29.87R
DEER VALLEY    CLEAR     67  24  19 N15       29.88R
SCOTTSDALE     CLEAR     63  31  30 NW7       29.89R
MESA-GATEWAY   CLEAR     61  28  29 S3        29.89S
$$

AZZ027-028-290800-
SOUTHWEST MARICOPA COUNTY AND PINAL COUNTY

CITY           SKY/WX    TMP DP  RH WIND       PRES   REMARKS
CASA GRANDE    NOT AVBL
GILA BEND      FAIR     N/A N/A N/A SW9         N/A
$$

AZZ503-504-507>509-290800-
SOUTHEAST ARIZONA

CITY           SKY/WX    TMP DP  RH WIND       PRES   REMARKS
TUCSON         CLEAR     56  33  42 SE5       29.97S
DAVIS-MONTHAN  CLEAR     53  33  46 S5        29.96S
NOGALES        CLEAR     46  26  45 NE3       30.00S
SIERRA VISTA   CLEAR     49  27  42 W10       30.01S
DOUGLAS        CLEAR     43  28  55 N9        29.98S
SAFFORD        CLEAR     53  35  50 NW8       29.90S
$$

AZZ020-021-025-026-031-290800-
SOUTHWEST ARIZONA

CITY           SKY/WX    TMP DP  RH WIND       PRES   REMARKS
YUMA           CLEAR     66  21  18 W7        29.95S
$$

CAZ031-033-041-043-047-048-061-290800-
SOUTHERN CALIFORNIA

CITY           SKY/WX    TMP DP  RH WIND       PRES   REMARKS
DOWNTOWN L.A.  CLEAR     64  51  62 CALM      30.00R
L.A. AIRPORT   CLEAR     63  50  62 CALM      30.00S
SAN DIEGO      PTCLDY    62  50  64 CALM      30.03S
BURBANK        CLEAR     66  31  27 E6        30.00F
ONTARIO        CLEAR     59  38  45 N5        30.02R
RIVERSIDE      CLEAR     62  34  35 VRB5      30.02R
PALM SPRINGS   CLEAR     72  17  12 W5        30.02S
EL CENTRO NAS  CLEAR     63  23  21 W7        29.98S
IMPERIAL       CLEAR     57  34  41 NW5       29.96S
NEEDLES        CLEAR     69  25  19 N13       30.02R
$$

NVZ020-UTZ003-290800-
SOUTHERN NEVADA-UTAH

CITY           SKY/WX    TMP DP  RH WIND       PRES   REMARKS
LAS VEGAS      PTCLDY    61  24  24 SE3       30.11R
SALT LAKE CITY CLEAR     41  32  70 N8        30.22R
$$

NMZ009-TXZ055-290800-
NEW MEXICO-WEST TEXAS

CITY           SKY/WX    TMP DP  RH WIND       PRES   REMARKS
ALBUQUERQUE    LGT RAIN  43  38  82 NW6       29.83R
EL PASO        PTCLDY    55  30  38 VRB5      29.86S
$$


........................KEY........................
SKY/WX - SKY CONDITION/WEATHER
TMP    - TEMPERATURE IN FAHRENHEIT
DP     - DEW POINT IN FAHRENHEIT
RH     - RELATIVE HUMIDITY IN PERCENT
WIND   - DIRECTION AND SPEED IN MILES PER HOUR (MPH)
VRB    - VARIABLE WIND DIRECTION
PRES   - MEAN SEA LEVEL PRESSURE IN INCHES OF MERCURY
         F - FALLING PRESSURE   R - RISING PRESSURE
         S - STEADY PRESSURE
VSB    - VISIBILITY IN MILES
HX     - HEAT INDEX IN FAHRENHEIT
WCI    - WIND CHILL INDEX IN FAHRENHEIT
TC     - TEMPERATURE IN CELSIUS WHICH IS ALSO KNOWN AS
         TEMPERATURE IN CENTIGRADE
AFB    - AIR FORCE BASE
         LUKE AFB IS LUKE AIR FORCE BASE
         DAVIS-MONTHAN IS DAVIS-MONTHAN AIR FORCE BASE
NAS    - NAVAL AIR STATION
         EL CENTRO NAS IS EL CENTRO NAVAL AIR STATION
N/A    - NOT AVAILABLE




USA.gov is the U.S. government's official web portal to all federal, state and local government web resources and services.